Regional Weather Roundup
Issued by NWS

Home | Current Version | Previous Version | Text Only | Print | Product List | Glossary Off
Versions: 1 2 3 4 5 6 7 8 9 10 11 12 13 14 15 16 17 18 19 20 21 22 23 24 25 26 27 28 29 30 31 32 33 34 35 36 37 38 39 40 41 42 43 44 45 46 47 48 49 50

000
ASUS43 KFSD 130010
RWRSD

WEATHER ROUNDUP FOR SOUTH DAKOTA
NATIONAL WEATHER SERVICE SIOUX FALLS SD
600 PM CST TUE DEC 12 2017

NOTE: "FAIR" INDICATES FEW OR NO CLOUDS BELOW 12,000 FEET WITH NO
SIGNIFICANT WEATHER AND/OR OBSTRUCTIONS TO VISIBILITY.


SDZ001>005-009-010-012>017-130100-
NORTHWEST AND NORTH CENTRAL SOUTH DAKOTA

CITY           SKY/WX    TMP DP  RH WIND       PRES   REMARKS
BUFFALO          N/A     45  20  36 W17       29.80F
FAITH            N/A     50  22  33 W16       29.82F
MOBRIDGE       CLEAR     42  28  57 SE6       29.73F
$$

SDZ012>016-024>037-041>051-057-063-072>074-130100-
SOUTHWEST AND SOUTH CENTRAL SOUTH DAKOTA

CITY           SKY/WX    TMP DP  RH WIND       PRES   REMARKS
RAPID CTY ARPT CLEAR     48  16  27 SW5       29.90F
PIERRE         CLEAR     46  27  47 W10       29.80F
CUSTER         CLOUDY    45   6  20 W12       30.01F
ELLSWORTH AFB  CLEAR     48  14  26 W8        29.89F
PHILIP         CLEAR     50  21  32 W13       29.86F
PINE RIDGE     MOCLDY    47  23  38 W7        29.95F
SPEARFISH      FAIR      55  10  16 W10G17    29.94F
WINNER         FAIR      51  20  29 SW6       29.87F
$$

SDZ004>011-016>023-039-040-130100-
NORTHEAST SOUTH DAKOTA

CITY           SKY/WX    TMP DP  RH WIND       PRES   REMARKS
ABERDEEN       CLEAR     31  24  75 S9        29.75F WCI  23
WATERTOWN      CLEAR     32  28  85 S10       29.77F WCI  24
BROOKINGS      CLEAR     33  27  78 S10       29.82F WCI  25
SISSETON         N/A     41  28  60 SW21G31   29.68F
$$

SDZ017-020-022-023-036>040-048>070-130100-
SOUTHEAST SOUTH DAKOTA

CITY           SKY/WX    TMP DP  RH WIND       PRES   REMARKS
SIOUX FALLS    CLEAR     38  29  70 SW6       29.86F
HURON          CLEAR     40  24  53 S9        29.81F
CHAMBERLAIN    CLEAR     48  23  36 SW12      29.84F
MITCHELL       CLEAR     40  29  64 SW9       29.84F
YANKTON        CLEAR     42  26  53 S8        29.88F
$$

ABBREVIATIONS USED IN REMARKS
   TC - TEMPERATURE IN CELSIUS
  WCI - WIND CHILL INDEX
   HX - HEAT INDEX
  VSB - VISIBILITY





USA.gov is the U.S. government's official web portal to all federal, state and local government web resources and services.